RH
19 19 20 20 19 18 17 15 14 13 11 11 10 10 10 9 9 9 8 9 9 9 10 10 10 11 11 12 13 14 15 16 18 21 27 32 35 36 36 38 41 41 38 35 33 30 27 28 40 57 68 68 61 52 50 61 84 101 106 107 103 101 102 101 102 101 97 97 99 99 100 102 99 98 102 104 107 107 103 101 101 100 100 101 100
22 21 19 17 16 14 13 12 12 11 11 10 10 10 9 9 9 9 8 8 8 8 8 9 9 9 10 10 11 12 12 14 15 17 20 25 30 34 35 36 40 43 44 41 39 36 33 29 30 42 58 67 68 65 56 50 59 75 92 103 105 104 106 105 102 102 100 99 99 101 101 102 102 100 101 103 105 106 104 104 104 102 101 99 100
19 18 16 14 14 13 12 12 11 11 10 10 9 9 9 8 8 7 7 7 7 7 6 7 7 8 9 9 10 10 11 12 14 15 17 19 24 29 32 34 36 40 45 46 45 43 40 36 31 32 44 57 64 69 70 61 54 56 65 77 84 89 99 107 107 104 105 103 99 101 101 102 103 102 101 102 101 102 107 108 105 104 105 103 101
17 16 15 13 12 12 11 10 10 9 8 8 8 7 7 6 6 6 5 5 5 5 5 5 5 6 6 7 8 9 10 10 12 13 14 16 19 23 27 30 32 35 40 46 48 48 46 44 39 34 35 45 54 62 71 73 67 59 56 59 63 66 74 88 99 103 105 105 102 98 96 100 108 107 105 105 102 101 107 107 105 106 107 106 104
15 13 12 11 10 10 9 9 8 8 8 7 7 6 6 5 5 5 4 4 4 4 4 4 4 4 4 5 6 7 8 9 10 11 12 14 16 19 23 26 29 31 33 39 46 51 52 51 49 44 38 39 45 53 63 74 78 73 64 60 59 59 60 63 72 82 91 98 101 98 94 95 100 104 109 109 102 104 107 103 102 104 104 107 107
12 11 11 10 10 10 9 9 9 8 8 7 6 6 6 5 5 4 4 4 4 4 4 4 4 3 3 4 4 5 6 7 8 9 10 12 13 16 19 22 26 28 29 32 38 46 53 56 56 55 49 43 42 47 54 65 77 81 75 68 65 60 59 59 59 64 75 87 92 94 96 95 91 92 101 105 102 106 107 101 101 102 102 106 108
12 11 11 11 10 10 10 10 10 9 8 7 7 6 5 5 5 4 4 4 4 4 4 4 4 4 3 3 4 4 4 5 6 7 8 9 11 13 15 19 22 26 27 28 30 36 45 54 60 61 59 52 47 47 50 56 67 77 78 75 74 67 60 60 60 58 63 76 87 91 94 97 97 94 94 99 106 109 105 100 100 103 103 102 103
12 12 12 11 11 11 12 11 10 9 9 8 7 6 6 5 5 5 4 4 4 4 3 4 4 4 4 4 4 4 4 4 5 5 6 7 9 10 12 15 19 22 26 27 27 29 35 44 55 63 65 62 57 53 53 55 59 67 72 73 78 78 68 62 63 62 59 63 74 86 91 94 100 102 98 95 100 105 105 103 100 101 103 101 103
14 13 12 12 12 12 12 11 11 9 8 8 7 7 6 6 6 5 5 4 4 4 4 4 4 4 5 5 4 4 4 4 4 5 5 6 7 8 10 12 15 19 23 27 28 28 29 34 44 57 66 69 68 64 60 59 60 61 65 68 75 83 79 68 65 66 66 62 61 66 73 80 88 96 101 100 97 98 103 104 102 102 101 99 101
14 13 12 12 12 12 12 11 10 9 8 8 7 7 7 6 6 6 5 5 4 4 4 3 4 4 4 5 5 4 4 4 4 5 5 5 6 6 7 9 11 15 18 23 27 29 29 29 34 45 59 69 74 73 69 67 67 66 65 66 69 78 83 79 72 68 69 71 70 64 57 60 67 74 82 89 91 92 95 98 101 104 105 103 102
14 13 12 12 12 12 11 11 10 9 9 8 8 8 7 7 7 6 6 6 6 5 4 4 3 3 3 4 4 4 4 3 4 5 5 5 5 5 6 7 8 11 14 19 24 28 30 30 30 34 45 59 71 77 77 73 74 74 73 72 71 74 81 84 82 76 71 71 76 77 67 58 58 62 64 66 68 71 73 76 80 86 92 100 105
14 14 13 13 13 12 11 11 10 10 9 9 9 8 8 8 7 7 7 7 7 6 5 4 3 3 3 3 4 4 4 3 3 3 4 5 5 5 6 6 6 8 10 14 19 24 30 32 31 31 34 45 59 72 79 79 78 79 80 80 81 80 81 84 88 86 80 73 71 76 81 75 67 66 67 65 61 59 59 59 60 61 64 71 80
15 15 14 13 13 12 11 11 11 11 10 10 9 9 8 8 8 8 8 7 7 7 5 4 3 3 3 3 3 3 3 3 3 3 3 4 5 5 5 6 6 6 7 10 14 19 25 31 33 33 32 34 44 59 73 80 82 83 84 85 88 89 87 88 92 93 89 78 70 73 84 90 86 78 75 74 70 63 60 60 59 58 56 56 58
16 16 15 13 13 12 12 12 12 11 10 10 9 9 9 9 9 8 8 7 7 6 6 5 4 3 3 3 3 3 3 3 3 3 3 3 4 4 5 5 6 7 7 7 9 13 19 26 31 34 34 33 35 44 58 73 82 86 88 89 91 92 93 94 95 99 96 82 70 75 89 99 100 92 85 82 80 75 70 67 65 63 60 59 58
17 16 15 14 13 13 12 12 11 10 9 9 9 9 9 9 9 8 7 7 6 6 5 5 4 3 3 3 3 3 3 3 3 3 3 3 3 3 4 5 5 6 7 7 7 9 12 18 25 31 35 35 34 36 43 57 71 82 89 94 94 92 93 97 97 100 103 91 73 74 94 106 106 102 97 89 84 82 80 78 77 72 66 63 63
17 16 15 14 13 12 12 11 10 9 9 9 9 9 10 9 9 8 7 6 5 5 5 5 4 4 3 3 2 3 3 3 3 3 3 3 3 3 3 4 5 5 6 7 7 7 8 11 17 24 31 35 37 36 37 42 53 67 81 94 99 96 94 95 96 99 105 104 86 76 90 106 108 109 109 100 91 85 80 79 84 83 76 71 69
17 17 15 14 13 12 11 10 10 10 10 11 10 10 9 9 8 8 7 7 5 5 5 4 4 4 3 3 2 3 3 2 3 3 3 3 2 3 3 3 4 4 5 6 7 8 8 8 11 16 23 30 35 38 38 38 42 50 64 81 95 102 101 96 94 97 102 106 98 86 90 102 108 111 110 105 103 96 83 74 77 85 87 81 75
17 18 16 14 13 12 11 11 11 12 12 12 11 10 10 8 8 8 7 6 5 4 4 4 4 4 3 3 3 2 3 2 3 3 2 3 3 2 3 3 3 4 4 5 5 7 8 8 8 10 14 21 29 35 39 40 40 42 47 61 78 94 104 101 95 97 100 103 102 96 93 99 107 109 106 104 106 106 95 80 71 75 83 85 82
18 20 17 14 13 12 12 13 13 14 14 13 12 11 10 9 8 8 7 6 5 4 4 4 4 4 3 3 3 2 3 3 3 3 3 3 3 2 3 3 3 3 3 4 5 5 7 7 8 8 10 13 20 28 35 39 41 42 43 46 57 75 91 98 99 100 101 103 104 100 93 94 103 109 107 103 103 106 104 95 82 74 73 75 78
21 21 18 14 14 14 15 16 16 17 16 14 13 11 10 10 8 8 7 6 5 4 4 4 4 4 3 3 3 2 3 3 3 3 3 3 3 3 3 3 3 3 3 3 4 4 5 6 7 8 9 10 13 19 26 34 38 42 44 44 46 56 70 84 94 100 102 104 107 107 99 92 96 105 109 105 102 106 106 101 95 86 78 71 66
22 20 17 15 16 18 19 20 19 19 18 15 14 12 11 10 9 8 7 5 5 4 4 4 4 4 4 3 3 3 3 3 3 3 3 3 3 3 3 3 3 3 3 3 3 4 4 5 6 7 8 9 10 12 17 25 31 37 42 45 46 49 56 67 79 90 99 103 106 110 106 98 93 98 105 103 101 105 106 105 105 96 88 84 70
21 18 16 17 20 22 23 23 21 20 19 16 14 12 11 11 9 8 7 6 5 4 4 4 4 4 4 4 4 3 3 3 3 3 3 3 3 3 3 3 3 3 3 3 3 3 4 4 5 6 7 8 9 10 12 16 23 30 36 42 46 49 52 56 63 75 88 98 105 107 105 105 102 99 99 98 98 105 108 107 107 101 95 94 86
18 17 18 20 24 25 24 24 22 20 18 15 14 13 11 10 9 8 7 5 5 4 4 4 4 4 4 4 4 4 3 3 3 3 3 3 3 3 3 3 3 3 3 3 3 3 3 4 4 4 5 7 7 9 11 12 15 20 27 35 41 46 50 53 56 62 71 84 97 104 105 108 107 103 100 97 93 100 111 110 106 106 103 100 96
17 18 21 23 24 23 22 21 19 18 16 14 13 12 11 10 9 8 6 5 5 4 4 4 4 5 5 5 4 4 4 3 3 3 3 3 3 3 3 3 3 3 3 3 3 3 4 3 4 4 4 5 6 7 9 11 12 14 19 25 32 39 46 50 54 57 60 68 79 93 103 108 108 105 103 102 95 94 104 106 106 112 108 103 103
18 20 22 23 23 21 19 19 18 17 15 14 13 11 10 9 8 7 6 5 4 4 4 4 5 5 5 5 5 5 5 4 4 3 3 3 3 3 3 3 3 3 3 4 4 3 4 4 3 4 4 4 5 6 7 8 10 12 14 17 23 30 38 45 50 54 57 61 66 76 89 99 104 103 98 100 100 97 99 100 106 116 112 103 104
21 22 22 22 21 19 19 18 19 18 15 13 12 10 9 8 8 7 5 5 5 4 5 5 5 5 5 5 5 4 5 4 4 4 3 3 3 3 3 3 3 3 3 3 4 3 4 4 4 4 4 4 4 5 6 7 7 9 11 13 16 21 28 36 44 50 53 57 62 68 75 82 90 94 93 92 91 91 97 102 105 111 109 105 108
21 21 20 21 19 18 19 19 19 17 14 13 10 9 9 8 7 6 5 5 4 4 5 5 5 5 4 5 5 4 4 4 4 4 3 3 3 3 3 3 3 3 3 3 3 3 4 4 4 4 4 4 4 4 5 5 6 7 8 10 13 15 21 26 34 42 46 51 58 65 72 75 78 82 84 83 80 77 83 94 103 108 105 105 112
20 20 19 19 18 18 19 19 18 16 13 11 10 8 8 7 7 6 5 5 5 4 5 5 4 5 4 5 5 4 4 4 4 4 4 4 4 3 3 3 3 3 3 3 3 3 4 4 4 4 4 4 5 5 5 5 5 6 6 8 10 12 15 19 25 32 38 44 50 58 67 73 75 76 75 75 75 71 70 75 88 102 106 105 109
20 19 19 19 18 18 18 17 15 13 11 10 9 8 8 7 6 6 5 5 5 5 5 5 5 5 4 5 5 4 4 4 4 4 4 4 4 4 3 3 3 3 3 3 3 3 3 4 4 4 4 5 5 5 5 5 5 5 5 6 7 9 12 14 18 23 29 36 42 49 58 66 71 74 73 72 71 69 69 68 70 82 95 104 110
22 21 22 21 21 20 19 17 15 12 11 9 8 8 7 6 6 5 5 5 5 5 5 5 5 5 5 5 5 5 4 4 4 4 4 4 4 4 4 3 3 3 3 3 3 3 3 3 4 4 4 4 5 5 5 5 5 5 5 5 6 7 9 11 13 17 21 27 33 40 48 55 62 67 69 71 69 66 67 68 68 69 73 85 100
24 24 25 23 23 21 19 17 14 12 11 9 8 8 7 6 6 5 5 5 5 5 5 5 5 5 5 5 5 5 4 4 4 4 4 4 4 4 4 4 4 3 3 3 3 3 3 3 3 4 4 4 4 4 5 5 5 5 5 5 6 6 7 8 10 13 15 19 24 31 38 45 52 57 60 63 65 64 62 64 68 69 64 65 75
24 26 25 23 22 20 18 16 13 12 10 8 8 8 7 7 6 5 6 6 6 6 5 5 5 5 5 5 5 5 5 4 4 4 4 4 4 4 4 4 4 3 3 4 3 3 3 3 4 4 4 4 4 4 4 4 4 5 5 6 6 6 6 7 8 9 12 14 17 21 28 35 41 47 51 53 56 58 58 59 61 64 64 60 58
24 24 22 20 19 17 16 14 12 11 10 8 8 8 7 7 6 6 6 6 6 6 5 5 5 5 5 5 5 5 5 4 4 4 4 4 3 4 4 4 4 4 4 3 3 3 3 3 4 4 4 4 4 4 4 4 4 5 5 5 6 6 7 7 7 8 9 10 12 14 17 23 30 36 40 44 48 51 52 54 55 57 59 58 55
23 20 18 17 16 15 15 13 11 10 9 8 8 7 7 7 6 6 6 6 6 5 5 5 5 5 5 4 5 5 5 4 5 4 4 4 4 4 4 4 4 4 4 4 3 4 4 4 4 4 4 4 4 4 4 4 4 5 4 5 5 6 7 7 7 8 8 8 9 11 12 15 19 25 30 35 40 44 46 48 49 51 54 55 53
21 17 16 15 13 13 12 11 11 9 7 8 7 7 7 6 6 6 6 6 6 5 5 5 5 5 5 4 5 5 5 4 4 4 4 4 4 4 4 4 4 4 4 4 4 4 4 4 4 4 4 4 4 4 4 4 5 5 5 5 5 6 6 7 7 8 8 8 8 9 10 10 12 15 19 25 30 35 38 40 41 43 46 49 50
20 16 15 13 11 12 11 10 10 8 7 7 6 6 7 6 6 7 6 6 6 5 5 5 5 5 4 5 5 4 5 5 4 4 4 4 4 4 4 4 4 4 4 4 4 4 4 4 4 4 4 4 4 4 4 4 5 4 5 5 5 6 6 6 7 7 7 8 8 8 8 9 10 10 11 14 18 23 27 31 33 34 36 40 43
17 14 13 12 11 11 10 9 9 7 6 7 6 7 7 6 7 6 6 6 5 4 5 4 5 5 4 4 5 4 5 5 4 5 4 4 4 4 4 4 4 4 5 4 4 4 4 4 4 4 4 4 4 4 3 4 4 4 5 5 5 6 6 6 7 7 7 7 7 8 8 8 9 9 9 9 10 13 17 20 24 27 28 31 35
15 13 12 11 11 11 9 8 7 6 6 6 6 7 7 6 7 6 6 6 5 4 5 4 5 5 4 4 5 4 5 4 4 5 4 4 4 4 4 4 4 4 4 4 5 5 4 5 4 4 4 4 4 4 3 4 4 4 4 5 5 6 5 6 6 6 7 7 7 7 8 8 9 9 9 9 8 8 10 12 16 19 21 23 27
14 12 12 11 10 9 8 7 6 6 6 6 6 7 7 6 6 6 6 6 5 5 5 4 5 5 4 5 4 4 5 4 4 5 4 4 4 4 4 4 4 5 5 4 5 5 4 5 4 4 4 4 4 4 3 4 4 4 4 4 5 5 5 5 6 6 6 7 7 7 7 8 9 9 9 9 9 8 8 8 9 12 14 17 19
13 11 11 10 9 8 7 6 6 6 5 6 7 7 7 6 6 6 6 6 5 5 5 5 5 5 4 5 5 4 5 4 4 5 4 4 5 4 4 4 4 5 5 4 5 5 5 5 4 4 4 4 4 4 4 4 4 4 4 4 4 5 5 5 5 5 6 6 6 7 8 8 9 9 9 9 8 8 8 7 7 8 9 12 14
12 10 10 8 7 8 6 5 6 6 6 7 6 6 7 6 6 6 6 6 5 5 5 5 5 5 5 5 5 5 5 4 5 5 4 4 5 4 5 5 5 5 5 5 5 5 5 4 4 4 5 4 5 5 4 5 4 4 4 4 4 4 4 5 5 5 6 6 6 7 7 8 8 8 8 8 8 8 8 7 7 8 8 9 11
10 8 8 7 6 7 6 6 7 6 6 7 6 7 6 5 6 6 6 6 5 4 5 5 5 5 5 5 5 5 5 5 5 5 5 5 5 5 5 5 5 5 5 5 5 4 4 4 4 4 5 5 5 5 4 4 4 4 4 4 4 5 4 5 5 6 6 6 6 7 7 6 7 7 7 7 8 8 8 8 7 8 8 9 9
8 7 6 6 6 7 6 7 6 6 7 7 6 6 6 5 6 6 5 6 5 5 5 5 5 5 5 5 5 5 5 6 5 5 6 5 5 5 5 5 5 5 5 5 5 5 4 4 4 4 5 5 5 5 5 4 4 4 4 4 4 5 5 5 6 6 6 6 6 6 6 6 6 6 6 7 7 7 8 8 8 8 8 8 9
6 6 6 6 7 7 7 7 7 6 6 6 6 6 6 6 6 6 6 6 5 5 5 5 5 5 5 5 6 5 6 6 6 6 6 5 6 5 5 5 5 5 5 4 4 5 4 4 4 4 4 5 5 5 4 4 4 4 4 4 4 5 5 5 6 6 6 6 6 6 6 6 6 6 6 6 7 7 7 7 7 8 8 8 8
6 6 6 6 7 7 7 7 6 6 6 6 6 6 5 6 6 6 6 6 5 5 5 5 5 6 6 6 6 6 6 6 6 6 6 5 6 5 5 5 5 5 5 4 4 5 4 4 4 4 4 5 5 5 4 4 4 4 4 4 4 5 5 5 5 6 5 5 5 5 5 5 5 5 6 6 7 7 7 7 7 7 7 8 8
6 6 6 7 7 7 7 6 6 6 6 6 5 5 6 6 6 6 6 5 5 6 5 5 6 6 6 7 6 6 6 6 6 6 5 5 5 5 5 5 5 5 5 4 4 4 4 5 5 4 4 4 4 4 4 4 4 4 4 4 4 4 5 5 5 5 5 5 5 5 5 5 5 5 5 6 7 7 7 7 7 7 7 7 7
6 6 7 7 7 6 6 6 6 6 6 6 5 5 5 6 6 6 6 5 6 6 6 6 6 6 6 6 6 6 6 5 5 5 5 5 5 5 5 4 4 5 5 4 5 4 4 5 5 4 4 4 4 4 4 4 5 5 4 4 4 4 5 5 5 5 5 5 5 5 5 5 5 5 5 6 6 7 6 7 7 6 7 7 7
6 7 7 6 6 6 6 6 6 6 6 6 5 5 5 6 6 6 5 6 6 6 6 6 6 7 7 6 6 6 5 5 5 4 4 5 4 5 5 4 4 5 5 4 5 5 4 5 5 5 5 4 4 4 4 4 5 5 4 5 4 5 5 5 5 5 5 5 5 5 5 5 4 5 5 6 6 6 6 6 6 6 6 7 7
6 6 6 6 6 6 6 6 6 6 6 5 5 5 5 6 6 5 6 6 6 6 7 7 6 6 6 6 6 5 5 4 4 4 4 4 4 5 5 4 4 5 5 5 5 5 5 5 5 5 5 4 4 4 5 5 5 4 5 5 5 5 5 5 5 5 5 5 5 5 4 4 4 5 5 5 6 6 6 6 6 6 6 6 7
6 6 6 6 6 6 6 6 6 6 6 5 5 5 5 5 6 6 6 6 6 7 7 7 6 6 6 5 5 5 4 4 4 4 4 4 4 5 5 5 5 4 5 5 5 4 5 5 5 5 4 4 4 4 4 5 5 5 5 5 5 5 4 4 5 5 6 6 5 5 5 4 4 5 5 5 5 5 5 5 5 5 6 6 7
6 6 6 6 6 5 5 6 6 5 6 5 5 5 6 6 6 6 6 6 7 7 7 6 6 6 5 5 5 4 4 4 4 4 4 4 4 4 5 5 5 4 4 5 5 5 5 4 5 5 4 4 4 4 5 5 5 5 5 5 5 4 4 5 5 5 5 6 5 5 6 5 5 5 5 5 5 5 5 5 5 5 5 6 6
Wind_Speed
115 113 112 111 110 110 109 108 108 107 107 106 105 104 103 103 102 101 100 99 98 98 98 98 98 99 99 99 99 99 99 99 99 99 101 102 102 101 100 98 98 99 99 100 102 104 106 109 111 113 115 116 117 119 122 125 129 133 135 136 136 136 135 135 134 133 131 129 128 127 124 122 121 120 119 118 117 115 113 111 110 108 107 105 103
110 109 109 108 108 107 106 105 105 104 104 103 102 102 101 100 100 99 99 98 97 96 96 96 96 97 97 98 98 98 99 99 100 100 101 103 104 105 104 102 101 101 101 101 102 105 107 109 111 113 115 117 117 118 120 123 127 131 134 137 139 139 138 137 136 135 134 133 132 131 129 127 124 122 120 119 118 117 116 115 114 113 112 110 108
107 106 106 105 104 104 103 102 101 100 99 99 98 98 97 97 97 96 96 95 95 94 94 94 94 94 95 96 97 98 98 99 100 100 101 103 105 106 107 106 105 104 104 104 104 105 107 109 112 114 116 117 118 118 119 122 125 129 132 135 138 139 139 139 139 136 135 135 134 133 132 130 127 124 121 119 118 117 117 117 116 116 116 114 112
104 103 102 101 101 100 99 98 97 96 95 95 94 94 94 94 93 93 92 92 91 91 91 91 91 92 93 94 95 97 98 98 99 100 101 102 104 106 108 109 109 108 107 107 107 107 108 110 112 114 115 117 119 119 119 121 124 128 131 134 136 137 138 138 139 137 136 135 135 134 132 130 128 126 123 121 120 119 117 117 117 117 117 117 115
100 99 98 97 97 96 95 95 94 94 93 92 92 92 92 92 91 91 90 90 89 89 89 89 89 89 90 91 93 95 97 98 99 100 101 102 104 106 108 110 111 111 110 110 110 110 110 111 113 114 116 117 119 120 120 121 123 126 129 132 135 137 136 136 137 137 137 136 136 135 133 131 128 127 125 123 122 121 119 118 117 117 117 116 116
95 94 94 94 94 94 94 94 93 93 93 93 92 92 92 91 91 90 90 89 88 88 88 88 88 88 88 89 90 92 94 96 99 100 101 102 104 106 108 110 112 113 113 113 112 112 113 113 114 115 117 118 119 120 121 122 123 126 128 130 133 136 136 136 136 136 137 137 137 136 134 132 130 128 127 126 124 122 122 121 120 119 117 116 115
92 92 92 92 92 93 93 94 94 94 94 93 93 92 92 91 91 90 90 88 87 86 86 86 87 88 88 87 87 88 90 93 97 99 101 103 104 105 107 109 111 113 115 115 115 115 115 115 116 117 118 119 120 121 122 123 124 126 128 129 130 133 135 135 135 136 136 137 137 137 136 135 134 132 130 129 128 126 125 124 123 122 120 118 116
92 92 92 92 92 92 93 93 94 94 93 93 92 92 92 91 91 91 90 89 87 86 84 83 83 85 87 87 86 86 87 90 93 96 100 102 104 105 107 109 111 113 115 117 117 117 117 118 118 118 119 120 121 122 123 124 126 127 128 129 129 131 133 133 134 135 136 136 137 139 139 137 137 136 135 134 132 131 129 128 127 125 124 122 120
93 92 92 91 91 91 92 92 93 92 92 91 91 91 90 90 90 90 90 89 88 86 84 81 80 81 83 85 86 85 85 87 90 94 97 100 103 106 107 108 111 113 115 117 119 119 120 120 120 121 121 122 122 123 124 125 127 128 129 129 129 130 132 133 132 133 134 135 136 138 138 138 137 138 138 137 136 135 133 132 131 130 128 126 124
92 92 91 90 90 90 90 90 91 91 90 89 89 89 89 88 88 88 88 88 87 86 84 81 79 78 79 81 84 85 85 85 87 91 95 97 101 104 107 109 110 112 114 117 119 121 121 122 122 123 123 124 124 125 126 126 127 128 129 130 130 130 132 133 133 132 133 134 135 137 137 136 134 135 136 137 137 137 136 135 135 134 133 131 130
91 91 90 89 88 88 89 89 89 89 88 87 87 86 86 86 85 85 86 86 87 87 85 83 80 78 78 78 80 82 84 84 85 88 92 96 98 102 105 109 110 112 114 116 119 121 122 123 124 124 125 126 126 126 127 127 128 129 129 130 131 131 132 133 133 133 133 133 134 135 135 134 132 132 133 135 135 135 135 134 134 134 134 135 135
90 91 90 89 88 88 88 88 88 88 87 86 85 85 84 84 83 83 83 83 84 86 86 85 82 79 78 78 78 80 82 84 84 86 89 93 97 100 102 106 110 112 113 115 118 120 123 124 125 126 126 128 128 129 128 128 128 129 130 130 131 132 133 133 134 134 134 134 134 134 134 133 132 132 132 133 133 133 132 131 131 131 131 131 132
90 90 90 90 89 88 88 88 87 87 86 85 84 84 83 82 81 81 80 81 81 83 84 85 83 80 78 77 77 78 80 82 84 84 86 90 94 98 101 103 107 111 113 115 117 119 122 125 126 127 128 129 130 131 131 130 130 130 130 130 131 132 133 134 134 135 136 136 135 133 132 133 133 133 132 133 133 132 131 130 129 128 127 126 126
88 89 90 89 88 88 87 87 86 86 85 84 83 82 81 81 80 80 79 79 79 79 81 82 83 81 78 77 76 76 78 80 83 84 85 87 90 95 99 102 104 108 112 115 117 119 121 124 126 128 129 130 131 132 133 133 132 131 131 131 132 133 133 134 134 135 137 139 136 132 131 132 133 134 133 133 133 133 131 130 129 128 126 125 123
87 88 89 88 87 87 86 86 85 84 83 82 81 80 79 79 79 79 79 78 77 76 77 79 80 79 77 75 74 75 75 78 81 84 85 86 87 91 95 100 103 105 109 113 116 118 120 123 126 128 130 131 132 133 134 135 135 134 133 132 133 134 134 134 135 135 137 139 138 133 130 132 133 134 134 134 133 133 132 131 131 130 128 125 123
87 87 88 88 87 85 85 84 84 83 82 82 81 80 79 78 78 79 78 78 76 75 75 76 78 78 77 74 73 73 74 75 78 82 84 85 86 88 91 96 100 104 106 110 113 117 119 122 124 127 130 132 133 134 134 136 137 137 136 135 135 135 135 135 135 135 136 139 139 135 132 132 133 134 135 134 134 134 133 132 131 130 129 127 125
85 86 86 86 85 84 83 82 82 82 81 81 80 79 79 78 78 78 78 76 74 73 73 74 76 77 76 75 73 71 72 73 75 79 82 84 85 86 88 91 96 101 104 107 111 114 118 120 123 126 129 131 133 135 135 136 137 138 138 138 137 137 137 136 136 135 136 138 139 137 134 132 133 134 135 135 134 135 134 133 131 130 130 129 127
83 84 85 84 83 82 82 81 81 81 81 80 80 79 79 79 78 78 76 74 72 70 70 71 74 76 76 75 74 72 71 71 73 75 79 82 84 84 86 88 92 97 101 105 108 111 115 118 121 124 127 130 133 135 136 137 138 139 140 140 140 140 139 138 137 136 136 137 138 138 136 134 134 134 135 135 135 134 135 134 131 129 129 129 127
82 83 84 83 82 82 82 81 81 81 81 80 80 80 80 79 79 78 76 74 71 68 67 68 70 73 75 75 74 73 71 71 71 73 75 79 82 83 84 86 88 92 97 102 106 109 112 116 119 122 125 128 131 134 136 138 139 139 140 141 141 142 142 141 139 138 136 137 138 139 138 136 135 135 136 136 135 134 134 134 132 130 129 129 127
82 83 84 83 82 82 82 82 82 81 82 82 82 81 81 80 79 78 77 75 72 69 67 66 67 70 72 73 73 73 71 71 71 72 73 75 78 81 83 84 86 89 93 97 102 106 109 112 116 119 122 126 129 132 135 137 139 140 141 142 142 143 144 144 143 141 139 137 138 139 140 139 137 137 138 138 137 135 134 134 133 132 130 129 129
82 83 83 83 82 83 83 83 82 82 82 83 83 82 81 80 79 78 78 76 73 71 68 66 65 67 69 71 71 71 71 70 70 71 72 73 75 78 80 82 84 87 90 93 97 102 105 109 112 116 119 123 126 129 133 136 138 140 141 142 143 143 144 145 145 144 142 140 139 140 142 142 139 138 139 139 137 135 134 134 134 133 132 131 130
82 82 83 82 82 83 83 83 83 83 83 83 83 83 82 81 80 79 78 77 74 72 69 67 65 65 67 69 70 70 70 69 69 69 71 72 73 75 78 80 81 84 87 90 93 97 101 105 108 112 116 120 123 126 130 133 136 139 141 142 143 144 145 146 146 146 145 143 142 142 143 144 143 141 141 140 138 135 134 135 135 134 133 132 132
82 82 82 81 82 82 82 82 83 83 84 84 84 83 82 81 80 80 78 77 75 72 70 68 66 64 65 66 67 68 68 69 68 68 68 70 72 73 75 77 80 82 84 87 90 93 97 101 105 108 112 116 120 123 126 130 133 136 139 141 143 144 145 146 146 146 146 146 145 145 145 146 146 145 144 142 140 136 135 135 135 135 134 133 133
81 81 80 81 80 81 81 81 82 82 83 83 83 83 82 81 80 80 78 76 74 72 70 69 67 65 64 64 64 65 67 68 68 67 67 68 70 72 74 75 78 80 82 84 87 90 93 97 101 105 108 112 116 120 123 126 129 133 136 139 141 143 145 146 147 147 147 147 147 148 148 149 149 149 147 146 143 139 136 135 136 136 135 135 134
81 80 80 80 79 79 79 80 81 82 82 82 82 82 81 80 79 79 78 76 74 72 70 69 67 65 64 63 62 63 64 66 67 68 67 67 68 70 72 74 75 78 81 82 85 87 90 94 97 101 105 108 112 116 119 123 126 129 132 136 139 142 144 146 147 148 148 148 148 149 150 151 152 152 151 149 147 143 139 137 136 137 138 137 136
81 80 79 79 79 79 79 80 81 82 82 82 81 81 80 79 79 78 77 75 73 71 70 69 67 65 63 62 62 61 62 64 66 67 68 68 67 67 69 72 74 76 78 81 83 85 88 90 94 97 101 105 108 111 115 119 122 125 128 131 135 139 142 144 146 148 149 149 149 150 151 152 153 153 153 152 150 147 143 140 139 139 140 140 139
81 80 79 79 79 79 80 81 81 82 82 81 81 80 79 78 78 77 76 74 72 70 69 68 66 64 63 62 61 61 61 62 64 66 67 68 68 67 67 69 72 74 76 78 81 83 85 88 90 94 97 101 105 108 111 114 118 121 124 127 131 134 138 142 145 147 148 149 150 150 151 152 153 154 154 154 153 150 147 144 143 142 142 142 141
81 80 80 80 80 81 81 81 82 82 82 81 81 79 79 78 78 77 76 73 71 69 67 66 65 64 62 61 61 61 61 61 62 64 65 66 67 68 67 67 69 72 74 76 78 80 82 85 88 90 93 97 100 104 107 111 114 117 120 123 126 130 134 137 141 144 147 148 149 150 152 153 154 155 155 155 154 152 149 147 146 146 145 144 143
82 81 81 81 82 81 82 82 82 82 82 81 80 79 79 78 77 76 75 72 70 68 67 65 64 63 62 62 61 61 62 61 61 62 64 64 66 67 67 66 67 69 71 73 75 77 80 82 84 87 90 93 96 100 103 107 110 113 116 119 122 125 129 133 136 140 144 147 148 150 151 153 155 155 156 155 155 154 152 150 148 148 148 147 146
84 83 83 84 83 83 83 83 83 82 82 81 80 79 78 77 77 76 74 72 70 68 67 65 63 62 62 61 61 61 62 62 61 62 62 63 64 65 66 66 66 66 68 70 72 75 77 79 81 83 86 89 93 96 100 103 106 109 112 115 118 121 125 128 131 135 139 142 146 148 150 152 154 156 156 156 156 155 153 152 152 150 149 149 149
85 85 85 85 84 84 84 84 84 83 82 80 79 78 78 77 76 75 74 72 70 68 66 64 63 62 61 61 61 61 61 61 61 61 62 62 62 63 64 65 65 65 66 68 70 72 74 76 78 80 82 85 89 92 96 99 101 104 107 110 113 116 120 124 127 131 134 137 141 144 148 151 153 155 156 156 156 155 154 153 153 153 152 150 149
85 85 85 85 85 85 85 85 84 83 82 80 78 78 77 77 76 75 73 72 70 68 65 63 62 61 61 60 60 60 60 60 60 61 61 61 60 61 62 63 64 65 65 66 68 69 71 73 75 77 80 82 85 88 91 94 97 100 103 105 109 112 115 119 123 127 130 133 136 139 143 147 150 153 154 155 155 155 155 154 154 154 153 152 150
85 85 84 84 84 85 85 84 84 83 82 80 78 77 76 76 75 73 72 71 69 67 65 62 61 61 60 60 59 59 59 59 59 60 61 60 60 59 60 61 62 63 64 65 66 67 69 71 73 75 77 79 82 84 87 90 93 96 98 101 104 108 111 115 118 122 126 130 133 135 138 141 145 148 151 152 153 154 154 154 154 153 154 153 152
84 84 84 84 84 84 85 85 84 83 81 79 77 76 76 75 74 72 71 70 68 67 64 62 61 60 59 59 58 58 58 58 58 58 59 59 59 59 59 60 60 61 63 64 65 66 67 68 70 73 75 78 80 82 84 86 89 92 94 96 99 103 107 111 114 118 121 125 129 131 133 136 139 143 146 148 151 152 153 154 153 153 153 153 153
86 85 84 84 84 84 85 84 83 82 80 78 77 76 75 74 73 71 69 69 68 66 63 61 60 59 58 57 57 57 57 57 57 57 58 58 58 58 58 59 60 61 61 62 64 65 65 66 68 70 73 76 78 79 81 83 85 88 90 92 95 99 103 107 111 114 117 120 123 127 130 132 134 137 140 143 146 149 151 152 152 152 152 152 153
88 87 86 85 84 84 85 85 84 82 79 78 77 75 75 74 72 70 69 68 67 65 62 60 59 59 57 56 56 56 56 56 55 56 56 56 56 56 57 58 59 60 61 61 62 63 64 65 66 67 70 73 75 77 79 80 82 84 87 89 92 96 99 103 107 110 112 115 118 121 124 128 131 133 135 137 140 143 146 148 149 149 149 150 151
89 88 87 87 86 86 86 85 84 82 79 78 76 75 74 73 71 69 68 68 67 64 62 60 59 58 57 56 55 55 55 55 55 55 55 55 55 54 55 56 58 59 60 60 61 62 62 63 65 66 68 71 73 75 76 78 80 82 84 86 89 92 96 99 102 105 108 111 113 116 119 122 125 129 131 133 134 136 139 142 144 146 146 147 148
91 90 89 88 88 87 86 85 84 82 79 77 76 75 75 73 71 69 68 68 67 64 61 60 58 58 56 55 55 54 54 54 54 54 54 54 54 53 53 55 56 57 58 59 60 61 62 63 64 65 66 69 71 72 74 75 78 79 81 84 86 89 92 95 98 101 104 106 109 111 114 116 119 123 127 129 131 131 133 136 139 141 142 143 144
92 91 90 89 88 87 85 84 82 80 79 77 75 75 74 72 70 69 68 68 66 63 61 59 58 57 56 55 55 54 53 53 52 53 53 53 53 53 52 53 54 55 57 58 59 60 62 62 63 64 65 67 69 70 71 73 75 78 80 82 84 86 89 91 94 96 99 101 103 106 108 111 114 118 122 125 127 128 128 129 131 135 137 138 139
93 92 91 89 88 86 84 82 80 79 77 75 74 74 73 71 70 69 68 68 66 63 60 58 57 56 55 55 54 54 53 52 52 51 51 51 51 52 52 51 52 53 55 56 57 59 61 62 62 63 64 65 67 69 69 71 73 76 78 80 81 83 85 87 89 91 94 96 99 101 104 107 110 114 117 120 122 124 124 124 125 127 129 132 135
94 92 90 88 87 85 84 82 79 77 75 74 73 73 72 70 69 68 68 68 66 63 61 59 58 57 55 54 54 53 53 52 51 50 50 49 49 51 51 51 51 51 53 54 56 58 59 60 61 62 63 64 65 67 68 70 72 74 75 77 78 80 82 84 85 87 89 92 95 98 102 104 107 109 112 114 116 118 119 120 120 121 123 126 130
93 91 88 87 85 84 83 81 79 77 75 73 72 71 71 69 68 68 68 67 66 64 62 60 59 57 56 54 53 52 52 51 50 50 49 49 48 49 50 50 50 51 51 52 54 56 58 59 59 60 61 63 64 66 68 70 71 72 72 73 74 76 78 80 82 84 87 90 93 96 99 101 103 105 106 107 109 111 113 115 115 116 118 121 124
91 89 87 85 84 83 82 80 79 77 74 73 72 70 69 68 67 67 67 67 66 64 62 61 60 58 56 54 53 51 51 50 50 49 49 49 48 48 49 49 50 50 50 51 52 54 56 57 57 58 59 60 62 65 68 69 69 70 70 69 70 72 74 76 79 82 85 88 90 93 95 97 98 100 101 102 104 106 108 109 111 113 115 117 119
90 88 86 84 83 82 81 80 78 76 74 73 71 70 68 68 67 67 67 67 65 64 63 62 60 58 57 55 53 51 50 50 50 49 49 49 48 48 48 48 49 50 50 50 51 52 54 55 56 56 57 58 61 64 66 68 67 67 67 67 67 69 71 73 77 80 83 85 87 89 91 92 94 95 96 97 99 102 104 105 107 109 111 113 114
89 87 85 84 83 82 80 79 78 76 74 73 71 69 68 67 67 66 66 66 65 64 63 62 60 58 57 56 54 53 51 50 50 49 49 48 48 48 48 47 47 48 50 50 50 50 52 53 54 55 55 57 59 62 64 65 64 64 65 65 66 68 69 72 74 77 80 82 84 86 87 88 89 90 91 93 95 98 100 102 103 104 106 108 110
88 86 84 83 82 81 80 78 77 75 74 73 71 69 67 66 66 66 66 65 64 63 62 61 59 58 57 56 56 54 52 51 50 49 49 48 48 48 48 47 46 47 48 49 49 49 50 52 53 54 54 55 57 60 61 61 60 62 64 65 66 67 68 70 72 74 76 78 80 82 83 85 85 86 86 88 91 94 96 98 100 101 102 104 105
87 85 84 83 82 80 79 77 76 75 74 73 71 68 66 65 65 65 65 64 63 62 62 61 59 58 57 57 56 55 54 52 50 49 49 48 47 47 48 47 46 46 47 48 48 49 49 50 52 53 54 55 55 57 57 57 58 60 63 64 64 64 65 67 70 72 74 75 76 78 79 80 81 81 82 84 87 89 92 94 96 97 99 100 101
86 84 83 82 81 80 78 77 76 75 74 72 70 68 66 65 65 65 64 63 62 61 61 60 59 58 58 57 56 55 54 53 51 49 48 48 47 47 48 47 46 46 46 47 47 48 48 49 51 52 53 54 53 53 53 55 57 59 60 61 61 62 64 66 68 70 71 72 73 75 76 77 77 77 79 81 83 86 88 90 92 93 94 95 97
84 83 82 81 80 79 77 76 75 74 73 72 70 68 67 66 65 64 62 61 61 61 60 60 58 57 57 57 56 55 54 53 52 50 48 47 47 46 47 47 46 46 46 46 46 47 47 48 50 51 52 53 51 50 51 54 56 56 57 58 59 61 64 65 65 66 67 69 71 73 74 74 74 74 75 77 79 82 84 86 87 88 89 91 93
83 82 81 80 79 78 77 76 75 74 73 72 70 68 67 66 65 63 62 61 60 60 60 60 58 57 56 56 55 55 54 53 52 51 49 47 46 45 46 47 46 45 45 46 46 46 46 47 49 50 51 51 50 49 50 52 53 54 55 56 58 60 62 61 60 62 64 67 69 70 71 72 72 72 73 75 77 79 80 81 82 83 85 87 89
82 81 81 80 79 77 76 75 75 74 73 72 70 68 66 65 65 63 62 61 60 59 60 59 58 56 56 55 55 54 53 52 51 50 49 48 47 45 45 46 47 46 44 44 46 47 46 46 47 49 50 50 49 49 50 51 51 52 54 56 58 59 57 57 58 61 63 65 66 67 69 70 70 70 72 74 75 76 77 78 78 78 80 82 84
Wind_Direction
290 290 290 289 289 289 288 288 288 287 286 286 285 285 284 283 282 281 279 278 277 275 273 272 271 269 268 266 265 263 262 260 258 256 255 254 253 251 249 247 245 244 242 240 239 238 237 236 235 235 234 234 233 233 233 233 234 235 235 236 237 238 238 239 239 239 239 238 239 240 241 243 244 245 245 245 246 245 245 245 246 247 247 248 248
290 290 290 289 289 289 288 288 287 287 286 286 285 284 283 282 281 280 279 278 276 275 273 272 270 269 267 266 264 263 261 259 257 255 253 252 251 251 249 247 244 243 242 241 239 238 237 237 235 234 234 235 234 233 233 233 234 235 235 236 237 238 239 239 239 239 240 240 240 240 241 241 243 245 246 246 247 247 246 245 245 246 247 247 247
291 290 290 290 289 289 288 287 287 286 285 285 284 283 283 282 281 280 279 277 276 275 273 271 269 268 266 265 264 262 260 259 257 255 253 251 250 249 249 247 245 243 242 241 240 238 237 237 237 235 234 235 235 234 233 233 234 235 236 236 237 238 238 239 240 240 240 241 241 241 241 241 242 243 245 246 247 247 247 246 246 245 246 246 247
291 291 290 290 289 289 288 288 287 287 286 285 285 284 283 283 282 280 279 278 277 275 273 271 269 267 265 264 262 261 260 258 256 255 253 251 249 248 247 247 246 244 241 240 239 238 237 237 237 237 236 235 235 234 234 234 234 234 235 236 237 238 238 239 239 240 240 241 242 242 242 242 242 242 243 244 245 246 246 246 246 245 245 245 246
292 292 291 291 291 291 291 290 290 290 289 288 288 287 286 285 284 283 282 280 279 277 275 273 270 267 265 263 261 259 259 257 256 254 253 251 249 247 246 246 245 244 242 240 239 238 237 237 236 237 237 236 235 235 234 234 234 235 235 236 237 238 239 239 239 240 240 240 241 242 242 242 241 242 242 242 243 244 244 244 245 246 246 245 245
293 293 293 294 294 294 294 293 293 292 292 291 291 290 289 288 286 285 284 282 280 279 277 275 273 270 267 264 261 259 257 256 255 254 252 251 249 248 246 245 244 244 243 241 239 238 237 236 236 236 236 236 236 235 235 234 235 235 235 236 237 238 238 239 240 240 240 240 240 241 242 242 242 241 241 242 242 243 244 244 244 245 246 246 246
296 296 296 296 296 296 296 295 295 294 294 293 292 292 291 289 288 286 285 283 281 279 278 276 275 273 270 266 263 260 258 256 254 253 252 251 249 247 246 245 244 243 243 242 240 239 237 236 236 236 236 236 236 236 236 235 235 235 236 236 237 238 238 238 239 240 240 240 241 241 241 241 242 242 242 241 241 241 242 244 244 245 245 246 246
299 298 298 298 297 297 296 296 295 295 294 294 293 292 291 290 289 288 286 285 283 280 278 276 274 273 271 269 265 262 259 256 254 252 251 251 249 248 246 245 244 242 242 242 241 240 238 236 235 235 235 236 236 236 236 236 235 235 236 236 237 238 239 238 238 239 240 240 240 241 241 241 241 242 242 242 242 241 241 242 243 244 245 245 246
300 299 299 298 298 297 296 296 295 295 294 294 293 293 292 291 289 288 287 286 284 282 280 277 274 272 271 270 268 264 260 257 255 253 251 250 249 248 246 245 244 243 241 241 240 240 239 237 235 234 234 235 235 236 236 236 236 236 236 237 237 238 239 239 239 239 240 240 241 240 240 240 241 242 242 243 243 242 242 241 241 243 244 245 245
300 299 299 298 297 297 296 296 295 295 295 294 294 293 292 291 290 289 288 287 286 285 283 280 277 274 271 270 268 266 262 258 255 254 252 250 248 247 247 245 243 242 242 241 240 239 239 238 236 235 234 234 234 235 235 236 236 237 236 237 237 237 239 240 240 239 239 240 241 241 241 240 240 241 242 242 243 243 243 242 242 242 242 243 244
300 299 299 298 298 298 297 297 296 296 295 295 294 294 293 292 291 290 289 288 287 286 284 283 280 277 274 271 269 267 264 260 257 254 252 251 248 247 246 245 244 243 241 241 240 239 239 238 237 236 234 234 234 234 235 235 236 236 237 237 237 237 238 239 240 240 239 239 240 241 242 241 240 240 241 241 242 242 242 243 243 242 242 242 243
301 301 301 300 300 299 299 298 298 297 297 297 296 295 294 292 291 290 289 288 287 286 285 284 282 279 276 273 270 267 265 262 259 255 252 250 249 248 246 245 244 243 242 240 240 239 239 238 238 237 235 234 233 234 234 235 235 236 236 237 237 237 238 238 239 240 240 240 240 240 241 242 241 240 240 241 241 241 241 242 242 243 242 242 243
303 302 302 302 301 301 300 300 300 299 299 298 297 296 295 294 293 291 290 288 286 285 284 283 282 280 277 274 271 268 265 263 260 257 253 250 249 249 247 245 244 243 243 241 239 239 238 238 238 237 236 235 234 233 233 234 234 235 236 236 237 237 238 238 239 240 241 240 240 240 241 242 242 241 241 241 242 242 241 241 242 242 242 242 242
303 303 302 302 302 302 301 301 300 300 299 298 298 297 296 295 294 293 291 289 287 286 284 283 282 280 278 275 272 268 265 263 261 258 255 252 249 248 248 247 245 243 243 242 240 239 238 238 238 237 237 236 235 234 233 233 234 234 235 236 236 237 237 238 238 239 241 241 240 239 240 242 243 243 242 241 241 242 242 242 242 242 241 241 242
304 303 303 303 302 302 302 301 301 300 300 299 299 298 298 297 296 295 294 292 289 287 285 284 282 281 278 276 272 269 266 263 262 260 257 254 251 248 247 246 246 244 243 242 241 240 238 237 237 237 237 237 236 235 234 233 233 233 234 235 236 236 237 237 238 238 240 242 242 240 239 241 242 243 243 243 242 242 242 242 242 242 242 241 241
304 304 303 303 303 302 302 302 301 301 301 301 300 300 299 299 298 297 296 294 292 289 287 285 283 282 280 277 273 270 267 264 262 260 258 256 253 250 247 246 245 245 243 242 242 241 240 238 237 237 237 237 237 236 235 234 233 233 233 234 235 236 236 237 237 238 238 240 242 241 240 240 241 242 244 244 243 243 242 241 241 242 242 241 241
305 304 303 303 303 303 303 302 302 302 302 302 301 301 300 299 299 298 297 295 293 291 289 286 285 283 281 279 276 272 268 265 262 260 259 258 255 252 249 246 245 245 244 243 242 241 241 240 238 237 236 237 237 237 236 235 234 233 233 233 234 235 236 236 237 237 238 239 241 241 241 240 241 242 243 244 244 244 243 242 241 241 242 242 241
305 304 303 303 304 304 304 304 303 303 303 302 302 301 301 300 300 299 297 296 294 291 289 287 286 284 282 280 278 275 271 267 263 260 259 258 256 254 251 248 246 245 244 244 242 241 241 241 240 238 237 236 236 237 236 236 236 235 234 233 233 234 235 236 236 237 237 239 240 241 240 240 240 241 242 243 243 244 245 244 242 241 241 241 241
307 306 305 305 306 306 306 305 305 305 304 303 303 303 302 302 301 300 298 297 295 293 291 288 286 284 282 281 279 276 273 269 266 262 259 257 256 255 253 250 248 245 244 244 243 242 241 241 240 240 238 237 237 236 237 237 236 236 235 234 233 233 234 235 236 236 237 238 239 240 240 240 240 241 242 242 242 243 245 246 245 243 242 241 241
309 307 307 307 308 308 307 307 307 306 306 305 304 304 304 303 302 301 300 299 297 295 293 290 287 284 282 281 279 277 274 271 267 264 261 258 256 255 253 251 249 247 245 244 243 243 242 240 240 240 239 238 237 237 236 237 237 236 236 236 235 234 234 234 235 236 236 237 239 240 241 240 239 240 241 242 242 243 244 245 246 245 245 243 242
310 309 309 309 310 309 309 308 308 307 307 306 305 305 304 304 303 302 301 300 299 297 295 292 289 286 283 281 279 277 274 271 268 265 263 260 257 256 254 252 250 249 247 245 243 243 243 241 240 240 240 239 238 237 237 237 237 237 237 237 236 235 234 234 234 235 235 236 237 239 241 242 240 240 240 241 242 242 243 244 245 246 246 245 244
311 310 310 311 311 310 309 309 309 308 307 306 306 306 305 305 304 303 302 301 300 298 296 294 290 287 284 281 279 277 275 272 269 266 264 262 259 257 256 254 252 250 248 246 245 243 243 242 241 240 240 240 239 238 237 237 237 237 237 237 237 237 236 235 235 234 235 235 236 237 240 241 242 241 240 241 241 241 242 243 244 245 246 246 246
311 311 311 311 311 310 310 309 309 308 307 307 307 307 306 306 305 304 302 301 300 299 297 295 292 288 285 282 280 278 276 273 271 267 264 262 260 258 256 255 254 252 249 247 246 245 243 243 242 241 240 240 240 239 239 238 237 237 237 237 237 237 237 237 236 235 235 234 235 236 237 240 241 242 242 241 241 240 241 242 244 244 245 246 246
311 311 311 311 310 310 309 309 308 308 307 307 307 307 307 306 305 304 303 302 301 300 299 296 294 290 287 283 281 279 277 275 273 270 266 263 261 260 257 255 254 253 252 249 247 245 244 243 242 242 241 240 240 239 239 239 238 238 237 237 238 238 238 238 237 237 236 235 235 235 236 238 240 241 241 242 241 240 240 241 243 244 244 245 245
312 312 312 311 310 309 309 309 309 308 308 308 308 307 307 306 306 304 303 303 302 301 300 297 295 292 289 285 282 280 278 276 274 272 269 266 262 260 259 257 255 253 252 251 249 246 245 243 242 242 241 241 240 239 239 239 239 238 238 238 238 238 238 238 238 238 237 237 236 235 235 237 238 240 241 241 241 241 240 240 241 243 244 244 245
312 312 312 311 311 310 310 310 310 309 309 308 308 307 307 307 306 305 304 303 302 302 300 298 295 293 290 287 284 281 278 276 274 273 271 269 265 262 260 258 256 254 252 251 249 248 246 244 243 242 241 241 241 240 239 239 239 239 239 238 238 238 238 238 238 239 239 238 237 237 236 236 237 239 240 241 242 241 240 239 240 241 243 244 245
314 313 313 313 312 312 312 312 311 310 309 309 308 308 308 307 306 305 304 304 303 302 300 298 296 294 291 289 286 283 280 277 275 273 271 270 268 265 261 259 257 256 254 252 250 249 247 246 244 243 242 241 241 240 240 239 239 239 239 239 238 238 238 238 238 239 239 239 239 238 238 238 238 239 240 241 242 242 241 240 239 240 241 243 244
315 315 314 314 314 314 313 313 312 311 310 310 309 309 309 308 307 306 305 304 304 302 300 298 297 295 293 291 288 285 282 279 276 274 272 271 269 267 264 261 258 257 255 253 251 250 248 246 245 244 243 242 241 241 240 240 239 239 239 239 239 239 238 238 238 239 239 240 240 239 239 239 239 239 240 241 242 242 242 241 239 239 240 241 243
316 316 316 315 315 315 314 313 312 311 311 311 310 310 310 309 307 306 305 305 305 303 301 299 298 297 295 293 290 287 284 281 278 276 273 272 270 268 266 263 260 258 256 255 253 251 249 247 245 244 244 243 242 241 241 240 240 239 239 239 239 239 239 239 238 238 239 239 240 240 240 240 240 240 240 241 241 242 243 242 241 240 239 240 241
317 317 317 316 316 316 315 314 313 312 312 311 311 311 310 309 308 307 306 306 305 304 302 300 299 298 296 294 291 288 285 283 280 277 275 273 270 269 267 265 263 260 258 256 254 252 250 249 247 245 244 243 242 242 241 241 240 240 239 239 239 239 239 239 239 239 239 239 239 240 240 240 241 241 241 242 242 242 242 243 243 242 241 240 240
317 318 317 317 317 316 315 315 314 313 312 312 312 311 310 310 308 307 307 307 305 304 302 301 300 298 296 294 291 288 286 283 281 279 276 274 272 269 268 267 265 262 259 257 255 253 252 250 248 247 245 244 243 243 242 241 241 240 240 239 239 239 239 239 239 239 239 239 239 239 240 240 241 241 242 242 243 243 243 243 243 243 243 242 241
318 318 317 317 317 316 316 315 314 314 313 312 312 312 311 310 309 308 308 307 305 303 302 301 300 298 296 293 291 289 286 284 282 280 278 275 273 271 269 267 266 264 261 258 256 254 253 251 250 248 247 245 244 243 243 242 242 241 240 240 239 239 239 239 239 239 239 240 240 239 239 239 240 241 242 243 243 244 244 244 243 244 244 244 243
318 317 317 317 317 316 316 315 314 314 313 313 313 312 311 310 308 308 307 306 305 303 303 302 300 298 296 294 292 289 287 285 283 281 279 277 275 273 271 268 266 265 263 260 257 255 253 251 250 250 248 247 245 244 244 243 242 242 241 240 240 239 239 239 239 239 239 239 240 240 239 239 240 240 241 242 243 244 244 244 244 244 245 245 245
318 317 318 317 317 317 316 315 315 314 314 314 314 313 311 309 308 308 307 306 305 304 303 302 300 298 296 294 292 290 288 286 284 282 280 279 277 275 273 271 268 266 263 261 259 257 254 252 251 250 250 249 247 246 245 244 243 242 242 241 240 240 240 239 239 239 239 239 239 240 240 240 240 240 241 241 242 243 244 244 245 245 245 245 246
318 318 318 318 318 317 317 316 315 314 314 314 314 313 311 310 309 309 308 307 305 304 304 303 300 298 297 295 293 291 289 287 285 283 281 279 277 276 274 272 270 267 265 262 260 258 256 254 252 251 250 249 248 247 246 244 243 243 242 241 241 240 240 240 239 239 239 239 239 239 240 241 241 240 240 241 241 242 243 244 244 245 245 245 246
319 319 319 319 319 318 317 317 316 315 315 314 314 313 311 310 309 309 309 307 306 305 304 303 301 299 297 296 294 292 290 288 286 284 282 280 278 276 274 272 270 268 266 264 262 260 258 256 254 252 251 250 249 248 247 245 244 243 242 241 241 240 240 240 240 240 239 239 239 239 239 240 241 241 241 241 241 241 242 243 244 244 245 245 245
319 320 320 320 320 319 318 317 316 315 315 315 314 313 312 311 310 310 309 308 306 306 305 304 302 300 298 297 295 293 291 290 288 285 283 280 278 276 274 271 270 268 267 265 264 262 260 258 256 254 252 251 250 248 247 246 245 244 243 242 241 240 240 240 240 240 240 240 240 240 240 240 240 241 241 242 241 241 241 242 243 243 244 245 245
321 321 321 321 321 320 318 317 316 315 315 315 315 314 312 311 311 311 310 308 306 306 305 304 302 300 299 298 296 294 292 290 288 286 283 281 279 277 274 271 269 268 267 266 265 264 262 260 258 256 254 252 251 249 248 246 246 245 243 242 241 241 240 240 240 240 240 241 240 240 240 240 240 241 241 242 242 242 241 241 242 243 243 244 244
321 322 322 321 320 319 318 316 316 315 315 315 315 314 312 312 311 311 310 308 307 306 306 304 303 301 300 298 296 295 292 290 288 286 283 281 280 277 274 272 269 268 267 265 264 264 263 261 260 258 256 254 252 251 249 247 246 245 244 243 242 242 241 241 240 241 241 241 241 241 241 241 241 241 241 242 242 242 242 241 241 241 242 243 244
322 322 321 320 320 319 317 316 316 315 315 315 315 313 312 312 312 311 310 308 307 307 306 305 303 302 300 299 297 295 293 291 288 286 284 282 280 278 275 273 270 268 267 265 264 263 262 261 260 259 257 255 254 253 251 248 247 246 245 244 243 243 242 242 241 241 241 241 241 241 241 241 241 241 241 241 242 242 243 242 241 241 241 242 243
321 321 321 320 319 318 317 316 316 316 316 315 314 313 312 312 312 311 310 308 307 307 307 306 304 303 301 299 297 295 293 292 289 287 285 282 280 279 277 274 272 269 267 266 264 263 262 261 259 258 258 257 255 254 253 250 248 247 245 245 244 244 243 243 242 242 241 241 241 241 241 241 241 241 241 241 242 242 243 243 243 242 241 241 242
321 320 320 319 319 318 317 317 316 316 316 315 314 313 313 313 313 311 310 308 308 308 308 307 305 304 302 300 298 296 294 292 291 289 286 284 281 279 277 276 273 270 268 266 264 263 262 261 259 258 257 256 255 255 254 252 250 249 248 246 245 245 244 244 243 243 241 241 240 240 240 240 241 241 241 241 242 242 242 243 243 243 242 241 241
320 320 320 319 319 318 317 317 316 316 316 315 314 314 314 313 313 311 310 309 308 309 308 307 306 305 303 301 299 297 295 293 292 290 288 285 282 280 277 276 274 272 269 267 265 263 262 261 259 258 256 255 255 254 253 253 252 251 250 249 247 245 245 244 243 243 242 241 241 241 241 241 241 241 241 241 242 242 242 242 242 242 242 242 241
320 320 320 320 319 318 317 317 316 316 316 315 315 315 315 314 313 311 310 309 309 309 309 308 307 305 304 302 300 298 296 295 293 291 288 286 284 281 278 276 274 273 271 268 266 264 263 262 260 258 256 255 254 253 253 253 253 252 252 251 249 247 245 244 243 243 243 242 242 242 241 241 241 241 241 241 241 242 242 242 242 242 242 242 242
321 320 320 320 319 318 318 317 317 317 316 316 315 315 315 314 313 312 310 310 310 310 309 307 307 306 305 303 301 299 298 295 294 292 289 287 285 282 280 277 275 274 272 270 268 266 264 262 261 259 256 254 254 254 253 254 254 253 252 251 249 247 246 244 243 243 242 243 243 243 242 242 242 241 241 241 241 241 241 242 242 242 242 242 242
321 321 320 320 319 318 318 317 317 317 317 316 315 315 315 314 313 312 311 310 310 309 308 307 307 306 305 303 302 300 299 297 295 292 290 288 286 283 281 278 276 274 273 271 269 267 265 264 262 260 257 255 254 254 254 254 254 254 253 251 249 247 246 246 245 245 244 244 244 243 243 243 242 242 241 240 240 241 241 241 241 241 241 242 242
321 321 320 320 319 318 318 318 318 317 316 316 315 316 316 314 313 312 311 311 310 309 308 307 306 306 304 303 302 301 299 298 296 293 291 289 287 285 283 280 278 275 273 272 270 268 266 265 263 261 259 257 255 254 255 254 254 253 252 251 250 249 248 247 246 246 246 245 245 245 245 244 243 242 242 241 241 241 241 240 240 240 240 241 241
321 321 320 319 319 319 318 318 318 317 316 316 316 316 316 315 313 312 311 311 310 308 307 307 306 306 304 303 302 301 300 298 296 294 292 290 288 287 284 282 280 277 275 273 271 269 267 265 264 262 260 258 257 255 255 254 253 252 252 252 251 250 249 247 247 247 247 247 247 247 247 246 244 243 242 242 241 241 241 241 241 240 240 240 240
321 321 320 319 319 319 319 318 318 317 316 316 316 316 316 314 313 312 311 311 309 309 308 307 306 305 304 303 302 301 300 298 297 295 293 290 289 287 285 283 281 279 277 274 272 270 268 266 264 263 261 260 258 256 255 254 253 252 252 252 251 250 249 248 248 248 249 248 248 248 248 247 246 246 244 243 243 242 241 241 241 240 240 240 240
321 321 320 320 319 319 319 319 318 317 317 316 316 316 316 314 313 312 312 311 310 309 308 307 306 305 304 303 302 301 299 298 297 295 294 291 290 288 286 285 282 279 277 276 274 271 268 266 265 264 262 261 259 257 255 254 253 253 252 252 251 249 249 249 249 249 249 249 248 248 249 249 248 247 247 246 245 244 243 242 241 240 239 239 240
322 321 321 320 320 320 319 319 318 317 317 316 316 316 315 314 313 313 312 311 311 310 308 307 306 306 304 303 302 300 299 298 297 296 294 293 291 288 286 285 284 281 278 276 274 273 270 267 265 265 264 262 260 258 256 255 254 253 252 252 251 250 250 250 249 248 248 248 249 249 249 249 249 248 247 247 247 246 245 245 243 241 240 239 238